QPF
0.00 0.00 0.00 0.00 0.00 0.00 0.00 0.00 0.00 0.00 0.00 0.00 0.00 0.00 0.00 0.00 0.00 0.00 0.00 0.01 0.01 0.01 0.01 0.00 0.00 0.00 0.00 0.00 0.00 0.00 0.00 0.00 0.00 0.00 0.00 0.00 0.00 0.00 0.00 0.00 0.00 0.00 0.00
0.00 0.00 0.00 0.00 0.00 0.00 0.00 0.00 0.00 0.00 0.00 0.00 0.00 0.00 0.00 0.00 0.00 0.00 0.00 0.00 0.00 0.00 0.00 0.00 0.00 0.00 0.00 0.00 0.00 0.00 0.00 0.00 0.00 0.00 0.00 0.00 0.00 0.00 0.00 0.00 0.00 0.00 0.00
0.00 0.00 0.00 0.00 0.00 0.00 0.00 0.00 0.00 0.00 0.00 0.00 0.00 0.00 0.00 0.00 0.00 0.00 0.00 0.00 0.00 0.00 0.00 0.00 0.00 0.00 0.00 0.00 0.00 0.00 0.00 0.00 0.00 0.00 0.00 0.01 0.01 0.00 0.00 0.00 0.00 0.00 0.00
0.00 0.00 0.00 0.00 0.00 0.00 0.00 0.00 0.00 0.00 0.00 0.00 0.00 0.00 0.00 0.00 0.00 0.00 0.00 0.00 0.00 0.00 0.00 0.00 0.00 0.00 0.00 0.00 0.00 0.00 0.00 0.00 0.00 0.01 0.02 0.03 0.03 0.02 0.01 0.01 0.01 0.00 0.00
0.00 0.00 0.00 0.00 0.00 0.00 0.00 0.00 0.00 0.00 0.00 0.00 0.00 0.00 0.00 0.00 0.00 0.00 0.00 0.00 0.00 0.00 0.00 0.00 0.00 0.00 0.00 0.00 0.00 0.00 0.00 0.00 0.00 0.02 0.04 0.06 0.07 0.05 0.02 0.02 0.02 0.01 0.01
0.00 0.00 0.00 0.00 0.00 0.00 0.00 0.00 0.00 0.00 0.00 0.00 0.00 0.00 0.00 0.00 0.00 0.00 0.00 0.00 0.00 0.00 0.00 0.00 0.00 0.00 0.00 0.00 0.00 0.00 0.00 0.00 0.02 0.06 0.09 0.12 0.09 0.07 0.03 0.02 0.02 0.02 0.01
0.01 0.01 0.00 0.00 0.00 0.00 0.00 0.00 0.00 0.00 0.00 0.00 0.00 0.00 0.00 0.00 0.00 0.00 0.00 0.00 0.00 0.00 0.00 0.00 0.01 0.00 0.00 0.00 0.00 0.00 0.00 0.00 0.01 0.06 0.13 0.13 0.07 0.05 0.03 0.02 0.02 0.01 0.01
0.01 0.01 0.00 0.00 0.00 0.00 0.00 0.00 0.00 0.00 0.00 0.00 0.00 0.00 0.00 0.00 0.00 0.00 0.00 0.00 0.00 0.00 0.00 0.00 0.00 0.00 0.00 0.00 0.00 0.00 0.00 0.00 0.00 0.04 0.08 0.07 0.03 0.01 0.01 0.00 0.00 0.00 0.00
0.01 0.00 0.00 0.00 0.00 0.00 0.00 0.00 0.00 0.00 0.00 0.00 0.01 0.01 0.01 0.00 0.00 0.00 0.00 0.00 0.00 0.00 0.00 0.00 0.00 0.00 0.00 0.00 0.00 0.00 0.00 0.00 0.00 0.02 0.02 0.01 0.00 0.00 0.00 0.00 0.00 0.00 0.00
0.00 0.00 0.00 0.00 0.00 0.00 0.00 0.00 0.00 0.00 0.00 0.00 0.01 0.01 0.01 0.01 0.01 0.01 0.00 0.00 0.01 0.01 0.00 0.00 0.00 0.00 0.00 0.00 0.00 0.00 0.00 0.00 0.00 0.00 0.00 0.00 0.00 0.00 0.00 0.00 0.00 0.00 0.00
0.00 0.00 0.00 0.00 0.00 0.00 0.00 0.00 0.00 0.00 0.00 0.00 0.00 0.00 0.00 0.00 0.00 0.00 0.00 0.00 0.01 0.01 0.00 0.00 0.00 0.00 0.00 0.00 0.00 0.00 0.00 0.00 0.00 0.00 0.00 0.00 0.00 0.00 0.00 0.00 0.00 0.00 0.00
0.00 0.00 0.00 0.00 0.00 0.01 0.01 0.00 0.00 0.00 0.00 0.00 0.00 0.00 0.00 0.00 0.00 0.00 0.00 0.00 0.01 0.00 0.00 0.00 0.00 0.00 0.00 0.00 0.00 0.00 0.00 0.00 0.00 0.00 0.00 0.00 0.00 0.00 0.00 0.00 0.00 0.00 0.00
0.00 0.00 0.01 0.01 0.02 0.04 0.05 0.01 0.01 0.00 0.00 0.00 0.00 0.00 0.00 0.00 0.00 0.00 0.01 0.01 0.00 0.00 0.00 0.00 0.00 0.00 0.00 0.00 0.00 0.00 0.00 0.00 0.00 0.00 0.00 0.00 0.00 0.00 0.00 0.00 0.00 0.00 0.00
0.01 0.00 0.01 0.01 0.01 0.03 0.04 0.01 0.02 0.01 0.01 0.01 0.00 0.00 0.00 0.01 0.01 0.03 0.03 0.03 0.02 0.01 0.00 0.01 0.00 0.00 0.00 0.00 0.00 0.00 0.00 0.00 0.00 0.00 0.00 0.01 0.01 0.02 0.02 0.02 0.01 0.01 0.01
0.01 0.00 0.00 0.00 0.00 0.00 0.01 0.01 0.01 0.01 0.00 0.00 0.00 0.00 0.01 0.02 0.03 0.04 0.04 0.03 0.03 0.03 0.02 0.01 0.00 0.00 0.00 0.00 0.00 0.00 0.00 0.00 0.00 0.00 0.00 0.01 0.02 0.03 0.03 0.03 0.03 0.03 0.03
0.01 0.00 0.00 0.00 0.00 0.00 0.00 0.00 0.01 0.01 0.00 0.00 0.00 0.00 0.00 0.01 0.02 0.02 0.02 0.02 0.01 0.01 0.02 0.01 0.01 0.00 0.00 0.00 0.00 0.00 0.00 0.00 0.00 0.00 0.00 0.01 0.01 0.02 0.03 0.04 0.04 0.04 0.04
0.01 0.00 0.00 0.00 0.00 0.00 0.00 0.00 0.00 0.00 0.00 0.00 0.00 0.00 0.00 0.00 0.01 0.01 0.01 0.01 0.00 0.00 0.00 0.00 0.00 0.00 0.00 0.00 0.00 0.00 0.00 0.00 0.00 0.00 0.00 0.00 0.01 0.02 0.03 0.03 0.03 0.03 0.03
0.02 0.01 0.01 0.00 0.00 0.00 0.00 0.00 0.00 0.00 0.00 0.00 0.00 0.00 0.00 0.00 0.00 0.00 0.00 0.00 0.00 0.00 0.00 0.00 0.00 0.00 0.00 0.00 0.00 0.00 0.00 0.00 0.00 0.00 0.00 0.00 0.00 0.01 0.02 0.03 0.03 0.03 0.03
0.04 0.03 0.02 0.01 0.01 0.00 0.00 0.00 0.00 0.00 0.00 0.00 0.00 0.00 0.00 0.00 0.00 0.00 0.00 0.00 0.00 0.00 0.00 0.00 0.00 0.00 0.00 0.00 0.00 0.00 0.00 0.00 0.00 0.00 0.00 0.00 0.00 0.00 0.00 0.01 0.03 0.03 0.03
0.04 0.04 0.02 0.01 0.00 0.00 0.00 0.00 0.00 0.00 0.00 0.00 0.00 0.00 0.01 0.00 0.00 0.00 0.00 0.00 0.00 0.00 0.00 0.00 0.00 0.00 0.00 0.00 0.00 0.00 0.00 0.00 0.00 0.00 0.00 0.00 0.00 0.00 0.00 0.00 0.00 0.01 0.01
0.06 0.04 0.02 0.01 0.01 0.01 0.00 0.00 0.00 0.00 0.00 0.01 0.02 0.02 0.02 0.02 0.01 0.00 0.00 0.00 0.00 0.00 0.00 0.00 0.00 0.00 0.00 0.00 0.00 0.00 0.00 0.00 0.00 0.00 0.00 0.00 0.00 0.00 0.00 0.00 0.00 0.00 0.00
0.04 0.04 0.03 0.02 0.04 0.03 0.02 0.02 0.01 0.01 0.03 0.05 0.07 0.06 0.05 0.03 0.02 0.02 0.01 0.01 0.01 0.00 0.00 0.00 0.00 0.00 0.00 0.00 0.00 0.00 0.00 0.00 0.00 0.00 0.00 0.00 0.00 0.00 0.00 0.00 0.00 0.00 0.00
0.04 0.06 0.05 0.06 0.11 0.12 0.08 0.06 0.05 0.05 0.07 0.10 0.11 0.11 0.09 0.07 0.05 0.03 0.02 0.01 0.01 0.00 0.00 0.00 0.00 0.00 0.00 0.00 0.00 0.00 0.00 0.00 0.00 0.00 0.00 0.00 0.00 0.00 0.00 0.00 0.00 0.00 0.00
0.06 0.07 0.06 0.10 0.19 0.21 0.17 0.14 0.15 0.14 0.15 0.18 0.19 0.18 0.14 0.09 0.05 0.03 0.01 0.01 0.00 0.00 0.00 0.00 0.00 0.00 0.00 0.00 0.00 0.00 0.00 0.00 0.00 0.00 0.00 0.00 0.00 0.00 0.00 0.00 0.00 0.00 0.00
0.07 0.09 0.10 0.17 0.27 0.29 0.26 0.24 0.25 0.26 0.27 0.27 0.25 0.18 0.11 0.06 0.03 0.02 0.01 0.00 0.00 0.00 0.00 0.00 0.00 0.00 0.00 0.00 0.00 0.00 0.00 0.00 0.00 0.00 0.00 0.00 0.00 0.00 0.00 0.00 0.00 0.00 0.00
0.11 0.11 0.13 0.17 0.20 0.20 0.20 0.23 0.25 0.29 0.29 0.23 0.17 0.10 0.05 0.03 0.01 0.01 0.00 0.00 0.00 0.00 0.00 0.00 0.00 0.00 0.00 0.00 0.00 0.00 0.00 0.00 0.00 0.00 0.00 0.00 0.00 0.00 0.00 0.00 0.00 0.00 0.00
MSLP
1014.48 1013.77 1013.26 1013.00 1013.01 1013.21 1013.54 1013.89 1014.21 1014.45 1014.61 1014.71 1014.80 1014.92 1015.11 1015.36 1015.65 1015.96 1016.24 1016.46 1016.61 1016.70 1016.76 1016.80 1016.87 1016.96 1017.08 1017.22 1017.36 1017.49 1017.57 1017.62 1017.63 1017.62 1017.60 1017.58 1017.57 1017.58 1017.60 1017.63 1017.68 1017.73 1017.80
1014.21 1013.64 1013.24 1013.09 1013.15 1013.39 1013.72 1014.06 1014.35 1014.56 1014.71 1014.83 1014.96 1015.14 1015.39 1015.69 1016.03 1016.35 1016.61 1016.81 1016.93 1016.99 1017.01 1017.04 1017.08 1017.16 1017.26 1017.38 1017.48 1017.56 1017.61 1017.62 1017.62 1017.60 1017.59 1017.59 1017.61 1017.65 1017.69 1017.74 1017.79 1017.85 1017.92
1013.82 1013.41 1013.16 1013.13 1013.29 1013.58 1013.93 1014.26 1014.54 1014.74 1014.88 1015.01 1015.16 1015.37 1015.65 1015.97 1016.31 1016.61 1016.85 1017.01 1017.09 1017.12 1017.13 1017.15 1017.19 1017.26 1017.35 1017.44 1017.51 1017.55 1017.56 1017.55 1017.53 1017.52 1017.54 1017.57 1017.63 1017.70 1017.78 1017.85 1017.92 1017.99 1018.07
1013.40 1013.15 1013.07 1013.17 1013.43 1013.78 1014.16 1014.51 1014.78 1014.96 1015.10 1015.23 1015.39 1015.60 1015.87 1016.18 1016.48 1016.74 1016.93 1017.05 1017.11 1017.12 1017.13 1017.16 1017.21 1017.30 1017.38 1017.46 1017.50 1017.51 1017.49 1017.46 1017.44 1017.44 1017.48 1017.55 1017.65 1017.76 1017.87 1017.97 1018.05 1018.14 1018.23
1013.06 1012.96 1013.02 1013.24 1013.59 1014.01 1014.42 1014.78 1015.04 1015.22 1015.34 1015.46 1015.61 1015.80 1016.05 1016.31 1016.57 1016.77 1016.91 1016.99 1017.03 1017.05 1017.08 1017.13 1017.22 1017.33 1017.43 1017.50 1017.52 1017.51 1017.46 1017.41 1017.38 1017.39 1017.46 1017.56 1017.69 1017.83 1017.96 1018.07 1018.17 1018.26 1018.36
1012.87 1012.90 1013.07 1013.39 1013.81 1014.26 1014.69 1015.03 1015.28 1015.45 1015.56 1015.67 1015.81 1015.98 1016.19 1016.41 1016.61 1016.77 1016.86 1016.91 1016.94 1016.97 1017.04 1017.14 1017.27 1017.41 1017.53 1017.60 1017.61 1017.57 1017.50 1017.43 1017.39 1017.40 1017.48 1017.60 1017.75 1017.90 1018.04 1018.15 1018.24 1018.32 1018.43
1012.88 1012.99 1013.23 1013.60 1014.05 1014.51 1014.93 1015.26 1015.49 1015.63 1015.74 1015.85 1015.98 1016.14 1016.33 1016.51 1016.67 1016.79 1016.85 1016.88 1016.91 1016.97 1017.07 1017.22 1017.39 1017.57 1017.70 1017.77 1017.76 1017.70 1017.60 1017.51 1017.46 1017.47 1017.55 1017.67 1017.82 1017.96 1018.08 1018.17 1018.23 1018.31 1018.40
1013.04 1013.20 1013.48 1013.87 1014.31 1014.75 1015.12 1015.41 1015.61 1015.75 1015.85 1015.97 1016.11 1016.28 1016.47 1016.65 1016.79 1016.88 1016.92 1016.95 1016.99 1017.06 1017.19 1017.37 1017.58 1017.77 1017.91 1017.97 1017.95 1017.87 1017.75 1017.64 1017.57 1017.57 1017.63 1017.75 1017.87 1017.99 1018.08 1018.13 1018.17 1018.21 1018.28
1013.28 1013.47 1013.76 1014.14 1014.54 1014.93 1015.25 1015.49 1015.66 1015.78 1015.89 1016.03 1016.21 1016.41 1016.63 1016.82 1016.96 1017.05 1017.09 1017.11 1017.15 1017.23 1017.37 1017.56 1017.77 1017.96 1018.09 1018.14 1018.10 1018.00 1017.87 1017.75 1017.67 1017.66 1017.71 1017.80 1017.91 1017.99 1018.04 1018.05 1018.05 1018.06 1018.11
1013.49 1013.70 1014.00 1014.35 1014.71 1015.04 1015.30 1015.48 1015.62 1015.73 1015.86 1016.04 1016.26 1016.51 1016.77 1016.99 1017.15 1017.25 1017.29 1017.31 1017.34 1017.42 1017.54 1017.71 1017.91 1018.07 1018.18 1018.21 1018.16 1018.05 1017.91 1017.79 1017.71 1017.70 1017.75 1017.83 1017.91 1017.96 1017.98 1017.96 1017.92 1017.90 1017.92
1013.57 1013.81 1014.12 1014.46 1014.78 1015.05 1015.26 1015.40 1015.50 1015.61 1015.77 1015.98 1016.26 1016.56 1016.87 1017.13 1017.32 1017.43 1017.47 1017.49 1017.50 1017.55 1017.64 1017.78 1017.93 1018.06 1018.14 1018.15 1018.09 1017.98 1017.85 1017.74 1017.68 1017.68 1017.73 1017.81 1017.88 1017.92 1017.91 1017.87 1017.81 1017.76 1017.76
1013.43 1013.73 1014.07 1014.41 1014.72 1014.96 1015.12 1015.23 1015.32 1015.44 1015.62 1015.87 1016.19 1016.54 1016.89 1017.18 1017.40 1017.52 1017.57 1017.57 1017.56 1017.58 1017.63 1017.72 1017.83 1017.92 1017.97 1017.96 1017.90 1017.81 1017.70 1017.62 1017.59 1017.61 1017.67 1017.75 1017.82 1017.86 1017.84 1017.79 1017.72 1017.66 1017.65
1013.08 1013.44 1013.83 1014.20 1014.52 1014.75 1014.90 1015.00 1015.10 1015.22 1015.42 1015.70 1016.05 1016.43 1016.80 1017.12 1017.35 1017.49 1017.54 1017.54 1017.52 1017.51 1017.53 1017.58 1017.64 1017.70 1017.72 1017.71 1017.66 1017.58 1017.51 1017.46 1017.46 1017.50 1017.58 1017.67 1017.74 1017.78 1017.77 1017.72 1017.65 1017.60 1017.59
1012.53 1012.97 1013.42 1013.84 1014.17 1014.42 1014.59 1014.71 1014.83 1014.98 1015.19 1015.49 1015.84 1016.23 1016.61 1016.93 1017.17 1017.32 1017.39 1017.40 1017.38 1017.37 1017.38 1017.40 1017.44 1017.48 1017.49 1017.48 1017.44 1017.39 1017.35 1017.33 1017.35 1017.41 1017.49 1017.58 1017.65 1017.69 1017.68 1017.65 1017.59 1017.54 1017.53
1011.86 1012.37 1012.87 1013.33 1013.71 1014.01 1014.22 1014.38 1014.53 1014.71 1014.95 1015.25 1015.60 1015.98 1016.34 1016.66 1016.90 1017.07 1017.16 1017.21 1017.23 1017.24 1017.26 1017.29 1017.33 1017.36 1017.38 1017.37 1017.35 1017.32 1017.30 1017.29 1017.32 1017.37 1017.44 1017.51 1017.57 1017.60 1017.59 1017.56 1017.51 1017.48 1017.47
1011.15 1011.70 1012.24 1012.74 1013.17 1013.52 1013.79 1014.03 1014.24 1014.47 1014.73 1015.04 1015.37 1015.72 1016.06 1016.36 1016.61 1016.80 1016.94 1017.04 1017.12 1017.19 1017.26 1017.33 1017.39 1017.44 1017.47 1017.47 1017.46 1017.44 1017.42 1017.41 1017.42 1017.45 1017.48 1017.51 1017.53 1017.52 1017.50 1017.46 1017.42 1017.39 1017.39
1010.49 1011.04 1011.59 1012.11 1012.58 1012.99 1013.35 1013.67 1013.97 1014.27 1014.57 1014.89 1015.21 1015.53 1015.83 1016.12 1016.37 1016.59 1016.79 1016.98 1017.14 1017.29 1017.43 1017.56 1017.66 1017.73 1017.78 1017.79 1017.79 1017.76 1017.74 1017.71 1017.68 1017.66 1017.63 1017.60 1017.55 1017.50 1017.45 1017.39 1017.34 1017.31 1017.30
1009.92 1010.45 1010.98 1011.51 1012.00 1012.48 1012.93 1013.35 1013.76 1014.14 1014.50 1014.84 1015.15 1015.45 1015.73 1016.00 1016.26 1016.52 1016.79 1017.05 1017.31 1017.56 1017.78 1017.97 1018.12 1018.22 1018.28 1018.31 1018.30 1018.28 1018.23 1018.18 1018.11 1018.02 1017.92 1017.81 1017.70 1017.58 1017.47 1017.39 1017.32 1017.28 1017.26
1009.48 1009.96 1010.45 1010.96 1011.48 1012.01 1012.56 1013.10 1013.62 1014.11 1014.54 1014.92 1015.25 1015.53 1015.79 1016.05 1016.32 1016.61 1016.94 1017.28 1017.63 1017.96 1018.26 1018.51 1018.70 1018.83 1018.91 1018.94 1018.94 1018.91 1018.86 1018.77 1018.67 1018.52 1018.36 1018.17 1017.97 1017.79 1017.63 1017.50 1017.40 1017.35 1017.31
1009.17 1009.59 1010.03 1010.51 1011.04 1011.63 1012.27 1012.92 1013.57 1014.17 1014.70 1015.13 1015.48 1015.77 1016.02 1016.27 1016.54 1016.86 1017.23 1017.64 1018.05 1018.45 1018.80 1019.09 1019.31 1019.47 1019.55 1019.60 1019.61 1019.59 1019.53 1019.44 1019.31 1019.13 1018.91 1018.66 1018.40 1018.15 1017.92 1017.75 1017.62 1017.54 1017.48
1008.97 1009.35 1009.73 1010.18 1010.72 1011.36 1012.08 1012.85 1013.62 1014.33 1014.95 1015.45 1015.84 1016.14 1016.39 1016.63 1016.91 1017.24 1017.63 1018.07 1018.52 1018.95 1019.33 1019.64 1019.87 1020.03 1020.13 1020.19 1020.22 1020.22 1020.18 1020.11 1019.98 1019.79 1019.54 1019.25 1018.94 1018.63 1018.35 1018.13 1017.96 1017.85 1017.77
1008.89 1009.23 1009.59 1010.01 1010.55 1011.22 1012.00 1012.87 1013.74 1014.56 1015.27 1015.84 1016.27 1016.59 1016.84 1017.08 1017.35 1017.68 1018.08 1018.52 1018.97 1019.40 1019.79 1020.09 1020.31 1020.47 1020.58 1020.65 1020.70 1020.73 1020.74 1020.71 1020.61 1020.43 1020.19 1019.88 1019.53 1019.18 1018.86 1018.58 1018.38 1018.23 1018.11
1008.94 1009.28 1009.60 1010.00 1010.54 1011.22 1012.05 1012.98 1013.93 1014.83 1015.61 1016.24 1016.71 1017.06 1017.32 1017.56 1017.82 1018.14 1018.51 1018.94 1019.37 1019.78 1020.13 1020.41 1020.61 1020.75 1020.85 1020.94 1021.02 1021.10 1021.16 1021.18 1021.13 1020.99 1020.76 1020.45 1020.09 1019.71 1019.34 1019.03 1018.77 1018.58 1018.43
1009.14 1009.48 1009.80 1010.19 1010.70 1011.38 1012.22 1013.17 1014.16 1015.11 1015.94 1016.61 1017.12 1017.49 1017.76 1018.01 1018.26 1018.56 1018.91 1019.30 1019.70 1020.06 1020.37 1020.60 1020.77 1020.89 1020.99 1021.08 1021.19 1021.31 1021.41 1021.48 1021.49 1021.39 1021.19 1020.89 1020.52 1020.12 1019.72 1019.36 1019.06 1018.82 1018.62
1009.52 1009.88 1010.19 1010.55 1011.04 1011.69 1012.51 1013.44 1014.43 1015.38 1016.23 1016.92 1017.45 1017.84 1018.13 1018.38 1018.64 1018.92 1019.25 1019.61 1019.96 1020.28 1020.53 1020.72 1020.85 1020.94 1021.02 1021.11 1021.23 1021.37 1021.51 1021.62 1021.66 1021.60 1021.42 1021.13 1020.76 1020.34 1019.91 1019.51 1019.16 1018.87 1018.62
1010.09 1010.47 1010.78 1011.11 1011.55 1012.15 1012.91 1013.79 1014.73 1015.65 1016.47 1017.16 1017.70 1018.11 1018.42 1018.68 1018.94 1019.22 1019.54 1019.87 1020.18 1020.45 1020.66 1020.81 1020.89 1020.95 1021.00 1021.07 1021.18 1021.32 1021.47 1021.60 1021.65 1021.60 1021.43 1021.15 1020.78 1020.35 1019.89 1019.46 1019.07 1018.73 1018.43
Thickness
5782 5785 5786 5786 5785 5783 5781 5779 5777 5775 5773 5770 5768 5767 5765 5764 5763 5761 5760 5759 5758 5756 5755 5753 5753 5752 5751 5750 5750 5750 5749 5749 5748 5748 5747 5746 5745 5745 5745 5745 5745 5744 5743
5785 5783 5783 5783 5782 5780 5779 5776 5774 5772 5769 5766 5764 5762 5761 5760 5758 5757 5756 5755 5754 5753 5752 5750 5749 5748 5747 5747 5747 5747 5747 5746 5745 5745 5744 5743 5742 5742 5742 5741 5740 5739 5739
5783 5780 5780 5780 5779 5777 5776 5774 5771 5769 5766 5763 5761 5759 5758 5756 5755 5754 5753 5752 5751 5750 5748 5747 5746 5745 5744 5744 5744 5743 5743 5743 5742 5742 5741 5740 5739 5739 5738 5737 5736 5735 5734
5782 5779 5777 5776 5775 5774 5772 5771 5769 5766 5763 5761 5759 5756 5755 5754 5752 5751 5751 5750 5748 5747 5745 5743 5742 5741 5740 5740 5740 5739 5739 5739 5739 5739 5738 5737 5736 5735 5734 5733 5732 5731 5729
5781 5778 5775 5773 5771 5770 5768 5767 5765 5763 5760 5758 5756 5754 5752 5751 5750 5748 5748 5746 5745 5743 5741 5739 5737 5736 5736 5735 5735 5735 5735 5736 5736 5736 5735 5734 5733 5732 5731 5729 5728 5727 5725
5779 5776 5773 5771 5769 5767 5765 5763 5761 5759 5757 5756 5754 5751 5749 5748 5747 5745 5744 5743 5741 5739 5737 5735 5733 5732 5731 5731 5731 5730 5730 5732 5733 5733 5732 5730 5728 5728 5727 5726 5724 5723 5721
5777 5774 5771 5769 5766 5764 5762 5760 5758 5756 5754 5752 5750 5748 5746 5745 5744 5743 5741 5740 5737 5736 5734 5732 5730 5729 5728 5728 5727 5726 5726 5727 5729 5729 5727 5725 5724 5724 5723 5723 5721 5719 5717
5778 5773 5769 5766 5764 5761 5759 5756 5754 5752 5750 5748 5747 5745 5743 5742 5741 5740 5738 5737 5735 5733 5731 5730 5728 5726 5726 5725 5724 5722 5720 5722 5724 5725 5723 5721 5720 5719 5719 5719 5717 5715 5713
5778 5773 5769 5766 5762 5759 5756 5754 5751 5749 5747 5745 5744 5742 5741 5739 5738 5737 5735 5734 5732 5730 5729 5727 5725 5724 5723 5722 5720 5717 5716 5717 5719 5719 5718 5717 5716 5715 5715 5714 5713 5711 5709
5775 5772 5769 5765 5762 5758 5755 5752 5750 5748 5746 5744 5741 5739 5737 5736 5736 5734 5733 5731 5729 5727 5725 5724 5722 5721 5719 5718 5716 5714 5712 5712 5714 5714 5713 5712 5711 5710 5709 5708 5707 5706 5705
5772 5770 5768 5765 5761 5758 5755 5752 5749 5746 5744 5742 5740 5737 5735 5734 5733 5732 5729 5727 5726 5724 5722 5720 5718 5716 5715 5714 5713 5712 5710 5710 5711 5710 5709 5708 5706 5705 5703 5702 5701 5700 5699
5772 5770 5768 5765 5761 5758 5755 5752 5749 5746 5743 5741 5738 5736 5734 5732 5730 5728 5726 5724 5722 5720 5718 5716 5714 5713 5712 5712 5711 5710 5708 5708 5709 5708 5706 5704 5702 5700 5699 5697 5696 5695 5694
5778 5774 5770 5766 5763 5759 5756 5752 5749 5746 5743 5740 5737 5735 5732 5730 5728 5726 5723 5721 5719 5717 5715 5713 5711 5710 5709 5709 5708 5707 5706 5705 5705 5704 5702 5700 5698 5696 5695 5693 5691 5690 5688
5782 5778 5774 5770 5765 5761 5758 5753 5749 5746 5743 5740 5737 5735 5732 5729 5726 5724 5722 5720 5718 5716 5713 5711 5710 5708 5707 5705 5704 5703 5703 5702 5701 5699 5697 5695 5693 5691 5689 5688 5686 5685 5683
5786 5783 5779 5774 5768 5763 5758 5754 5751 5747 5744 5742 5738 5735 5732 5729 5726 5724 5721 5718 5716 5713 5711 5709 5708 5706 5704 5702 5700 5699 5697 5695 5693 5691 5689 5687 5686 5684 5683 5681 5680 5679 5678
5789 5786 5782 5777 5773 5767 5762 5757 5754 5750 5747 5744 5741 5738 5734 5731 5726 5722 5719 5716 5715 5712 5709 5706 5704 5702 5699 5697 5695 5693 5690 5687 5684 5682 5680 5679 5678 5677 5676 5674 5673 5671 5670
5792 5787 5782 5777 5773 5768 5764 5760 5757 5753 5749 5745 5741 5737 5734 5730 5726 5721 5716 5713 5711 5708 5704 5701 5697 5694 5691 5689 5686 5684 5682 5679 5676 5672 5670 5669 5669 5668 5667 5666 5665 5663 5661
5791 5784 5780 5777 5769 5764 5761 5759 5756 5752 5747 5742 5737 5732 5729 5725 5720 5714 5708 5705 5702 5699 5695 5691 5687 5683 5680 5677 5676 5674 5673 5671 5668 5665 5662 5660 5658 5658 5657 5656 5655 5653 5650
5791 5784 5778 5775 5766 5760 5756 5753 5750 5745 5740 5735 5731 5726 5722 5717 5712 5706 5700 5695 5692 5689 5685 5682 5676 5672 5668 5666 5666 5664 5661 5659 5656 5654 5651 5649 5646 5645 5644 5643 5642 5639 5636
5789 5783 5777 5772 5765 5758 5751 5745 5739 5734 5730 5726 5723 5718 5715 5710 5704 5698 5691 5687 5683 5679 5675 5671 5666 5661 5657 5655 5654 5652 5649 5646 5643 5639 5637 5634 5631 5629 5627 5625 5624 5622 5619
5782 5777 5774 5767 5760 5755 5747 5740 5731 5723 5719 5714 5711 5708 5704 5700 5694 5688 5682 5677 5673 5668 5663 5659 5654 5649 5644 5642 5640 5636 5635 5632 5629 5625 5622 5619 5616 5613 5611 5608 5605 5603 5601
5776 5771 5766 5760 5754 5750 5744 5739 5730 5720 5711 5705 5699 5695 5691 5687 5682 5676 5670 5664 5660 5655 5650 5645 5640 5634 5629 5626 5623 5619 5614 5614 5613 5612 5608 5605 5601 5598 5594 5591 5587 5584 5581
5769 5764 5758 5753 5748 5742 5735 5728 5719 5709 5700 5692 5686 5681 5677 5673 5668 5662 5657 5652 5647 5641 5635 5630 5625 5620 5613 5610 5607 5603 5597 5593 5592 5595 5592 5588 5584 5580 5577 5574 5571 5567 5565
5764 5757 5750 5744 5739 5732 5726 5717 5708 5698 5688 5680 5674 5669 5665 5661 5656 5649 5644 5639 5633 5628 5623 5618 5612 5608 5602 5596 5592 5588 5583 5579 5575 5573 5574 5571 5568 5564 5560 5558 5554 5552 5549
5757 5750 5744 5736 5728 5722 5714 5706 5697 5688 5680 5671 5665 5659 5653 5648 5643 5638 5632 5626 5620 5615 5610 5606 5601 5597 5591 5585 5579 5573 5568 5563 5559 5554 5553 5554 5552 5550 5546 5543 5539 5536 5533
5747 5740 5734 5725 5718 5712 5704 5696 5689 5681 5672 5664 5657 5649 5643 5637 5632 5627 5621 5614 5609 5604 5599 5594 5590 5586 5580 5574 5567 5561 5554 5548 5543 5538 5536 5535 5535 5535 5532 5528 5524 5520 5517